Hourly Weather Roundup
Issued by NWS Central Illinois

Home | Current Version | Previous Version | Text Only | Print | Product List | Glossary On
Versions: 1 2 3 4 5 6 7 8 9 10 11 12 13 14 15 16 17 18 19 20 21 22 23 24 25 26 27 28 29 30 31 32 33 34 35 36 37 38 39 40 41 42 43 44 45 46 47 48 49 50
000
NZUS43 KILX 211110
HWRILX

Area Weather Roundup
National Weather Service Lincoln IL
600 AM CDT MON AUG 21 2017

NOTE:  "FAIR" indicates few or no clouds below 12,000 feet, with
       no sigificant weather and/or obstructions to visibility.


CITY           SKY/WX    TMP DP  RH WIND       PRES   REMARKS
Bloomington    MOCLDY    69  69 100 SW5       30.09S FOG
Champaign      PTCLDY    71  70  96 S7        30.09R
Danville       CLEAR     68  68  99 CALM      30.07S
Decatur        PTCLDY    73  71  93 SW7       30.09R
Effingham      PTCLDY    74  72  93 SE3       30.13R
Flora          CLEAR     71  70  98 CALM      30.12R FOG
Galesburg      CLOUDY    66  66 100 S3        30.07R
Jacksonville   MOCLDY    73  70  90 S6        30.08R
Lacon          CLOUDY    68  68 100 CALM      30.05S
Lawrenceville  CLEAR     71  68  90 CALM      30.13R
Litchfield     PTCLDY    72  71  98 S3        30.10R
$$


CITY           SKY/WX    TMP DP  RH WIND       PRES   REMARKS
Lincoln        CLOUDY    71  71 100 CALM      30.08R FOG
Macomb         CLOUDY    65  64  99 CALM      30.07F
Mattoon        CLEAR     73  72  96 S6        30.10R
Mt Carmel AP   CLEAR     67  65  94 CALM      30.13R
Olney-Noble AP CLEAR     70  67  92 S3        30.13R
Paris AP       CLEAR     71  70  98 S6        30.11S
Peoria         CLOUDY    71  71 100 CALM      30.06S FOG
Pontiac        CLOUDY    69  69  98 CALM      30.07S FOG
Rantoul        PTCLDY    71  70  98 CALM      30.09S FOG
Robinson       PTCLDY    67  67 100 CALM      30.13S FOG
Springfield    MOCLDY    73  72  96 S3        30.08R
Taylorville    CLOUDY    72  72  99 S3        30.09S
$$

...REGIONAL REPORTS...


CITY           SKY/WX    TMP DP  RH WIND       PRES   REMARKS
Chicago O`Hare CLOUDY    71  67  87 CALM      30.05R
Kankakee       CLOUDY    72  70  94 S7        30.07S
Moline         MOCLDY    66  64  93 CALM      30.03S
Mount Sterling CLOUDY    68  67  97 S6        30.06S
Mount Vernon     N/A     70  69  97 CALM      30.13R
Pittsfield     CLOUDY    72  69  91 S6        30.08S
Quincy         MOCLDY    71  67  87 S6        30.06S
Rockford       CLOUDY    68  66  93 CALM      30.05S
$$


CITY           SKY/WX    TMP DP  RH WIND       PRES   REMARKS
Burlington     CLOUDY    69  69 100 CALM      30.04R
Cedar Rapids   TSTM      70  68  93 NW17G24   30.11R
Des Moines     TSTM      69  65  86 NE16      30.05R
Kirksville     CLOUDY    70  66  87 S6        30.06R
Ottumwa        CLOUDY    70  68  93 N8        30.08S
St Louis       CLOUDY    78  73  84 SW5       30.10R HX  81
$$


CITY           SKY/WX    TMP DP  RH WIND       PRES   REMARKS
Terre Haute    CLEAR     71  68  90 S6        30.11R
Evansville     PTCLDY    69  67  93 CALM      30.13R
Indianapolis   PTCLDY    71  69  93 SE7       30.12R
Lafayette      PTCLDY    67  67 100 CALM      30.08R
Madison        CLOUDY    63  62  97 N3        30.05R
Milwaukee      CLOUDY    70  67  90 NW3       30.05R
$$






USA.gov is the U.S. government's official web portal to all federal, state and local government web resources and services.